Weather in Akureyri

Iceland     65°41′04″N   18°06′54″W
temp.,
°C
wind,
m/s
gust,
m/s
humid.,
%
clouds,
%
prec.,
mm/h
press.,
hPa
HPBL,
m
17 may, mon
mon1700:00−2ene2277100 0.0 1022295
03:00−2ene1278100 0.0 1022211
06:00−2ene1279100 0.0 1022292
09:000e2274100 0.1 1022635
12:00+1e2361100 0.2 10221081
15:00+2ene3357100 0.1 10221129
18:00+2ene2363100 0.1 1022938
21:000ene2273100 0.1 1023604
18 may, tue
tue1800:00−1ene228199 0.1 1023383
03:00−2ene118279 0.0 1023286
06:00−2ene117783 0.0 1024468
09:00−1e126488 0.0 1024854
12:00+1e225350 0.0 10241081
15:00+3ene224749 0.0 10241302
18:00+3ene224858 0.0 10241260
21:00+1ene225913 0.0 1025750
19 may, wed
wed1900:00−1ene21725 0.0 1027308
03:00−2ene11785 0.0 1027162
06:00−1ene11755 0.0 1027310
09:000ene11618 0.0 1027719
12:00+2ene11465 0.0 10261207
15:00+4nne223938 0.0 10261682
18:00+5nne324144 0.0 10251481
21:00+3ne22515 0.0 1026612
20 may, thu
thu2000:000ene21615 0.0 1026210
03:00−1ene11699 0.0 102645
06:00−1e116434 0.0 1025203
09:00+1e11555 0.0 1024622
12:00+3e11445 0.0 10231260
15:00+5ene22365 0.0 10221681
18:00+5ene32418 0.0 10211329
21:00+3ene224856 0.0 1021815
21 may, fri
fri2100:00+2ene2253100 0.0 1020423
03:00+1ene1156100 0.0 1019308
06:00+1e225692 0.0 1018431
09:00+1ese22475 0.0 1018818
12:00+3e23394 0.0 10171270
15:00+5se233789 0.0 10151673
18:00+6ese223999 0.0 10131659
21:00+5ese3345100 0.0 10131353